Exeter, United Kingdom

1:01 AM GMT on February 28, 2017 (GMT +0000)
Exeter

Weather History for EGTE - October, 2011

Change the Weather History Date:

Wednesday, October 19, 2011

  Actual Average Record
Temperature  
Mean Temperature 46 °F -  
Max Temperature 56 °F 54 °F 66 °F (2014)
Min Temperature 37 °F 41 °F 33 °F (2007)
Degree Days  
Heating Degree Days 18    
Moisture  
Dew Point 41 °F    
Average Humidity 77    
Maximum Humidity 97    
Minimum Humidity 49    
Precipitation  
Precipitation 0.03 in - - ()
Sea Level Pressure  
Sea Level Pressure 30.16 in    
Wind  
Wind Speed 7 mph ()    
Max Wind Speed 18 mph    
Max Gust Speed 30 mph    
Visibility 6.2 miles    
Events Rain    
Averages and records for this station are not official NWS values.
T = Trace of Precipitation, MM = Missing Value Source: Averaged Metar Reports

Daily Weather History Graph

Daily Weather History Graph

Search for Another Location

Airport or City:

Trip Planner

Search our weather history database for the weather conditions in past years. The results will help you decide how hot, cold, wet, or windy it might be!

Date:

Astronomy

Oct. 19, 2011 Rise Set
Actual Time 7:42 AM BST 6:14 PM BST
Civil Twilight 7:09 AM BST 6:47 PM BST
Nautical Twilight 6:30 AM BST 7:25 PM BST
Astronomical Twilight 5:52 AM BST 8:03 PM BST
Moon 11:26 PM BST (10/19) 2:23 PM BST (10/19)
Length of Visible Light 11h 38m
Length of Day
10h 31m
Waning Gibbous, 57% of the Moon is Illuminated
Oct 19
Waning Gibbous
Oct 20
Last Quarter
Oct 26
New
Nov 2
First Quarter
Nov 10
Full

Hourly Weather History & Observations

Time (BST) Temp. Windchill Dew Point Humidity Pressure Visibility Wind Dir Wind Speed Gust Speed Precip Events Conditions
12:20 AM 46.4 °F 44.3 °F 39.2 °F 76% 29.98 in 6.2 mi North 4.6 mph - N/A   Partly Cloudy
12:50 AM 45 °F - 42 °F 83%  in - Calm Calm - -  
12:50 AM 46.4 °F 41.1 °F 41.0 °F 81% 29.98 in 6.2 mi WNW 11.5 mph - N/A   Partly Cloudy
1:20 AM 46.4 °F 42.4 °F 41.0 °F 81% 29.98 in 6.2 mi West 8.1 mph - N/A   Partly Cloudy
1:50 AM 46.4 °F 42.9 °F 41.0 °F 81% 29.98 in 6.2 mi West 6.9 mph - N/A Rain Rain Showers
3:50 AM 43 °F - 40 °F 84%  in - Calm Calm - -  
6:20 AM 41.0 °F 39.0 °F 39.2 °F 93% 30.04 in 6.2 mi Variable 3.5 mph - N/A   Scattered Clouds
6:50 AM 40 °F - 39 °F 97%  in - Calm Calm - -  
6:50 AM 41.0 °F 39.0 °F 39.2 °F 93% 30.04 in 6.2 mi Variable 3.5 mph - N/A   Scattered Clouds
8:50 AM 42.8 °F - 41.0 °F 93% 30.09 in 6.2 mi Calm Calm - N/A   Partly Cloudy
9:20 AM 44.6 °F 43.1 °F 42.8 °F 93% 30.09 in 6.2 mi Variable 3.5 mph - N/A   Partly Cloudy
9:50 AM 47 °F - 45 °F 91%  in - Calm Calm - -  
9:50 AM 46.4 °F 42.4 °F 44.6 °F 93% 30.09 in 6.2 mi NW 8.1 mph - N/A   Partly Cloudy
10:20 AM 48.2 °F - 44.6 °F 87% 30.12 in 6.2 mi WNW 5.8 mph - N/A   Partly Cloudy
10:50 AM 51.8 °F - 44.6 °F 76% 30.12 in 6.2 mi West 8.1 mph - N/A   Partly Cloudy
11:20 AM 51.8 °F - 44.6 °F 76% 30.12 in 6.2 mi NW 9.2 mph - N/A   Partly Cloudy
11:50 AM 53.6 °F - 42.8 °F 67% 30.12 in 6.2 mi WNW 11.5 mph - N/A   Scattered Clouds
12:20 PM 55.4 °F - 42.8 °F 63% 30.15 in 6.2 mi WNW 11.5 mph - N/A   Scattered Clouds
12:50 PM 54 °F - 40 °F 49%  in - Calm Calm - -  
12:50 PM 53.6 °F - 39.2 °F 58% 30.15 in 6.2 mi WNW 11.5 mph - N/A   Scattered Clouds
1:20 PM 57.2 °F - 42.8 °F 59% 30.15 in 6.2 mi WNW 11.5 mph - N/A   Scattered Clouds
1:50 PM 55.4 °F - 41.0 °F 58% 30.15 in 6.2 mi West 12.7 mph - N/A   Scattered Clouds
2:20 PM 55.4 °F - 39.2 °F 54% 30.15 in 6.2 mi NW 18.4 mph 29.9 mph N/A Rain Light Rain Showers
2:50 PM 51.8 °F - 44.6 °F 76% 30.15 in 6.2 mi WNW 8.1 mph - N/A   Partly Cloudy
3:20 PM 55.4 °F - 42.8 °F 63% 30.15 in 6.2 mi WNW 10.4 mph - N/A   Scattered Clouds
3:50 PM 51 °F - 42 °F 62%  in - Calm Calm - -  
3:50 PM 53.6 °F - 41.0 °F 62% 30.18 in 6.2 mi WNW 17.3 mph - N/A   Scattered Clouds
4:20 PM 51.8 °F - 41.0 °F 67% 30.18 in 6.2 mi WNW 11.5 mph - N/A   Partly Cloudy
4:50 PM 51.8 °F - 41.0 °F 67% 30.18 in 6.2 mi WNW 13.8 mph - N/A   Scattered Clouds
5:20 PM 51.8 °F - 39.2 °F 62% 30.18 in 6.2 mi WNW 10.4 mph - N/A   Scattered Clouds
5:50 PM 50.0 °F - 39.2 °F 66% 30.21 in 6.2 mi WNW 11.5 mph - N/A   Scattered Clouds
6:20 PM 48.2 °F - 39.2 °F 71% 30.21 in 6.2 mi WNW 4.6 mph - N/A   Partly Cloudy
6:50 PM 46 °F - 39 °F 69%  in - Calm Calm - -  
6:50 PM 46.4 °F 44.3 °F 39.2 °F 76% 30.24 in 6.2 mi West 4.6 mph - N/A   Partly Cloudy
7:20 PM 46.4 °F - 39.2 °F 76% 30.24 in 6.2 mi Variable 2.3 mph - N/A   Partly Cloudy
7:50 PM 44.6 °F 43.1 °F 39.2 °F 81% 30.27 in - Variable 3.5 mph - N/A   Clear
8:20 PM 44.6 °F - 39.2 °F 81% 30.27 in - Variable 2.3 mph - N/A   Clear
8:50 PM 44.6 °F 43.1 °F 39.2 °F 81% 30.27 in - Variable 3.5 mph - N/A   Clear
9:20 PM 42.8 °F 39.3 °F 37.4 °F 81% 30.27 in - West 5.8 mph - N/A   Clear
9:50 PM 44 °F - 40 °F 82%  in - Calm Calm - -  
9:50 PM 42.8 °F 39.3 °F 39.2 °F 87% 30.30 in - WNW 5.8 mph - N/A   Clear
10:20 PM 42.8 °F 40.1 °F 39.2 °F 87% 30.30 in - WNW 4.6 mph - N/A   Clear
10:50 PM 41.0 °F - 37.4 °F 87% 30.30 in - NW 2.3 mph - N/A   Clear
11:20 PM 41.0 °F 39.0 °F 37.4 °F 87% 30.30 in - Variable 3.5 mph - N/A   Clear
11:50 PM 39.2 °F - 37.4 °F 93% 30.30 in - Calm Calm - N/A   Clear